Weather History for Kansas City International, MO

Change the Weather History Date:

Sunday, April 7, 2013

  Actual Average Record
Temperature  
Mean Temperature 16 °C 11 °C  
Max Temperature 23 °C 17 °C 28 °C (1893)
Min Temperature 8 °C 5 °C -7 °C (2007)
Degree Days  
Heating Degree Days 5 14  
Month to date heating degree days 109 101  
Since 1 July heating degree days 4677 4792  
Cooling Degree Days 0 1  
Month to date cooling degree days 0 1  
Year to date cooling degree days 0 4  
Growing Degree Days 10 (Base 50)    
Moisture  
Dew Point 7 °C    
Average Humidity 52    
Maximum Humidity 68    
Minimum Humidity 35    
Precipitation  
Precipitation 21.59 mm 2.54 mm 2.49 mm (1993)
Month to date precipitation 0.85 0.69  
Year to date precipitation 5.69 5.59  
Snow  
Snow 0.00 cm 0.25 cm 5.59 cm (1916)
Month to date snowfall 0.0 0.3  
Since 1 July snowfall 31.3 18.5  
Snow Depth 0.00 cm    
Sea Level Pressure  
Sea Level Pressure 1008 hPa    
Wind  
Wind Speed 18 km/h (SSE)    
Max Wind Speed 39 km/h    
Max Gust Speed 50 km/h    
Visibility 15 kilometers    
Events Rain , Thunderstorm    
T = Trace of Precipitation, MM = Missing Value Source: NWS Daily Summary

Daily Weather History Graph

Daily Weather History Graph

Search for Another Location

Airport:

Trip Planner

Search our weather history database for the weather conditions in past years. The results will help you decide how hot, cold, wet, or windy it might be!

Date:

Astronomy

Apr. 07, 2013 Rise Set
Actual Time 6:53 AM CDT 7:48 PM CDT
Civil Twilight 6:26 AM CDT 8:16 PM CDT
Nautical Twilight 5:53 AM CDT 8:48 PM CDT
Astronomical Twilight 5:20 AM CDT 9:22 PM CDT
Moon 5:10 AM CDT (4/7) 5:22 PM CDT (4/7)
Length of Visible Light 13h 50m
Length of Day
12h 55m
Waning Crescent, 8% of the Moon is Illuminated
Apr 7
Waning Crescent
Apr 10
New
Apr 18
First Quarter
Apr 25
Full
May 2
Last Quarter

Hourly Weather History & Observations

Time (CDT) Temp. Dew Point Humidity Pressure Visibility Wind Dir Wind Speed Gust Speed Precip Events Conditions
12:53 AM 13.9 °C 3.9 °C 51% 1009.3 hPa 16.1 km SSW 7.4 km/h / 2.1 m/s - N/A   Scattered Clouds
1:53 AM 13.3 °C 3.9 °C 53% 1009.3 hPa 16.1 km SSW 9.3 km/h / 2.6 m/s - N/A   Partly Cloudy
2:53 AM 12.8 °C 3.9 °C 55% 1009.4 hPa 16.1 km SW 9.3 km/h / 2.6 m/s - N/A   Partly Cloudy
3:53 AM 11.1 °C 3.9 °C 61% 1009.2 hPa 16.1 km SW 7.4 km/h / 2.1 m/s - N/A   Clear
4:53 AM 9.4 °C 3.3 °C 66% 1009.6 hPa 16.1 km South 5.6 km/h / 1.5 m/s - N/A   Clear
5:53 AM 10.0 °C 3.9 °C 66% 1009.6 hPa 16.1 km SSE 11.1 km/h / 3.1 m/s - N/A   Scattered Clouds
6:53 AM 10.0 °C 3.9 °C 66% 1010.1 hPa 16.1 km South 11.1 km/h / 3.1 m/s - N/A   Mostly Cloudy
7:53 AM 10.6 °C 5.0 °C 68% 1010.9 hPa 16.1 km SSE 9.3 km/h / 2.6 m/s - N/A   Overcast
8:53 AM 16.7 °C 6.7 °C 52% 1010.8 hPa 16.1 km South 14.8 km/h / 4.1 m/s - N/A   Mostly Cloudy
9:53 AM 18.3 °C 5.6 °C 43% 1010.6 hPa 16.1 km South 13.0 km/h / 3.6 m/s - N/A   Overcast
10:53 AM 19.4 °C 6.1 °C 42% 1010.9 hPa 16.1 km South 13.0 km/h / 3.6 m/s - N/A   Overcast
11:53 AM 21.7 °C 6.1 °C 36% 1010.4 hPa 16.1 km SSE 16.7 km/h / 4.6 m/s - N/A   Overcast
12:53 PM 22.2 °C 5.6 °C 34% 1010.1 hPa 16.1 km South 27.8 km/h / 7.7 m/s 35.2 km/h / 9.8 m/s N/A   Overcast
1:53 PM 22.2 °C 5.6 °C 34% 1009.0 hPa 16.1 km South 22.2 km/h / 6.2 m/s 37.0 km/h / 10.3 m/s N/A   Overcast
2:53 PM 22.2 °C 5.6 °C 34% 1008.3 hPa 16.1 km SSE 27.8 km/h / 7.7 m/s - N/A   Overcast
3:53 PM 21.1 °C 6.7 °C 39% 1007.3 hPa 16.1 km SSE 20.4 km/h / 5.7 m/s - N/A   Overcast
4:53 PM 22.2 °C 7.2 °C 38% 1006.5 hPa 16.1 km SSE 29.6 km/h / 8.2 m/s 37.0 km/h / 10.3 m/s N/A   Mostly Cloudy
5:53 PM 21.7 °C 8.3 °C 42% 1005.5 hPa 16.1 km SSE 25.9 km/h / 7.2 m/s 38.9 km/h / 10.8 m/s N/A   Mostly Cloudy
6:53 PM 20.6 °C 10.0 °C 51% 1004.7 hPa 16.1 km SE 31.5 km/h / 8.7 m/s 42.6 km/h / 11.8 m/s N/A   Overcast
7:38 PM 19.0 °C 11.0 °C 60% 1004.6 hPa 16.1 km SSE 29.6 km/h / 8.2 m/s - 0.0 mm Rain , Thunderstorm Light Thunderstorms and Rain
7:53 PM 17.2 °C 10.6 °C 65% 1004.0 hPa 12.9 km SSE 31.5 km/h / 8.7 m/s 44.4 km/h / 12.3 m/s 0.0 mm Rain , Thunderstorm Light Thunderstorms and Rain
8:53 PM 15.0 °C 11.1 °C 78% 1004.5 hPa 16.1 km SSE 29.6 km/h / 8.2 m/s - 2.0 mm Thunderstorm Thunderstorm
9:33 PM 14.0 °C 12.0 °C 88% 1006.7 hPa 4.0 km SE 14.8 km/h / 4.1 m/s - 7.1 mm Rain , Thunderstorm Heavy Thunderstorms and Rain
9:41 PM 14.0 °C 12.0 °C 88% 1006.3 hPa 8.0 km SE 13.0 km/h / 3.6 m/s - 10.2 mm Rain , Thunderstorm Thunderstorms and Rain
9:53 PM 13.9 °C 11.7 °C 87% 1006.6 hPa 12.9 km SSE 14.8 km/h / 4.1 m/s - 10.9 mm Rain , Thunderstorm Thunderstorms and Rain
10:22 PM 14.0 °C 12.0 °C 88% 1006.3 hPa 16.1 km SE 20.4 km/h / 5.7 m/s - 1.5 mm Rain Light Rain
10:53 PM 13.9 °C 11.7 °C 87% 1004.9 hPa 16.1 km ESE 25.9 km/h / 7.2 m/s - 1.5 mm   Overcast
11:20 PM 14.0 °C 12.0 °C 88% 1005.0 hPa 16.1 km SE 22.2 km/h / 6.2 m/s - 0.0 mm Rain , Thunderstorm Light Thunderstorms and Rain
11:39 PM 14.0 °C 12.0 °C 88% 1005.0 hPa 16.1 km SSE 20.4 km/h / 5.7 m/s - 1.3 mm Rain Light Rain
11:53 PM 13.9 °C 12.2 °C 89% 1005.0 hPa 16.1 km South 13.0 km/h / 3.6 m/s - 1.3 mm Rain , Thunderstorm Light Thunderstorms and Rain